Back to catalog

STARLINK-3329

AliveCommunicationsVLEO
NORAD 50827·PAYLOAD·🇺🇸 United States

Launched Jan 6, 2022 from Cape Canaveral Space Force Station

Loading…

Next Passes (next 24 hours)

TLE

FreshSource: CelesTrak SupGP

Epoch: Sep 14, 2026, 14:29 UTC

1 50827C 22001AA  26257.60395833 -.00033190  00000+0 -98123-3 0  2576
2 50827  53.1603  28.9357 0001210  85.0485  31.3121 15.34387130    17

Track STARLINK-3329 in real time with AllMySat

Download on the App Store